Location: *
(58.4167°N, 22.5000°E)
Time: 03:50:17
(UTC+00:00)

Timation 2 Rocket - Pass Details

Date: 22 September 2019
Orbit: 908 x 1074 km, 70.0° (Epoch: 17 October)

Event Time Altitude Azimuth Distance (km) Brightness Sun altitude
Rises 18:08:11 0° 231° (SW) 3,736 7.5 -13.3°
Reaches altitude 10° 18:10:50 10° 234° (SW) 2,764 6.8 -13.6°
Maximum altitude 18:17:13 65° 317° (NW) 1,058 4.4 -14.3°
Drops below altitude 10° 18:23:22 10° 40° (NE) 2,664 6.2 -15.1°
Sets 18:25:54 0° 43° (NE) 3,592 6.8 -15.4°
